Weather in Vodiana Balka

Ukraine / Poltava Region     49°54′08″N   34°28′54″E
temp.,
°C
wind,
m/s
gust,
m/s
humid.,
%
clouds,
%
prec.,
mm/h
press.,
hPa
HPBL,
m
20 january, thu
thu2023:00−13wsw229759 0.0 102113
02:00−11ssw239628 0.0 102037
05:00−10ssw379541 0.0 1018108
08:00−9ssw4109415 0.0 1017179
11:00−4s5119493 0.0 1016390
14:00−2ssw6129292 0.0 1013567
17:00−3s61389100 0.1 1011367
20:00−4s61491100 0.1 1009370
21 january, fri
fri2123:00−4s61393100 0.0 1007352
02:00−3ssw51097100 0.5 1005472
05:00−3sw51196100 0.8 1004387
08:00−3wsw61195100 1.3 1005614
11:00−3wsw7118797 0.2 1006980
14:00−2wsw81391100 0.3 10051045
17:00−4wsw8158578 0.1 1006694
20:00−4wsw8158982 0.1 1007592
22 january, sat
sat2223:00−5sw61392100 0.0 1008527
02:00−6sw7139290 0.1 1008468
05:00−6sw6129391 0.1 1008421
08:00−6sw5109598 0.3 1009330
11:00−4sw479298 0.1 1010371
14:00−2sw4688100 0.3 1010744
17:00−6ssw259681 0.1 101262
20:00−8ssw349628 0.1 101452
23 january, sun
sun2323:00−11ssw229864 0.0 101633
02:00−12sse119974 0.0 10179
05:00−13e2210089 0.0 101819
08:00−13ene2310098 0.0 102142
11:00−7ne3594100 0.0 1022180
14:00−6nne4894100 0.0 1022389
17:00−7nne51193100 0.0 1024352
20:00−8nne61491100 0.0 1024373
24 january, mon
mon2423:00−7nne71587100 0.0 1023452
02:00−7nne8169396 0.4 1022559
05:00−7nne71494100 0.2 1022487
08:00−6nne61393100 0.4 1022440
11:00−4ne61193100 0.2 1023500
14:00−3ne699485 0.3 1023522
17:00−5ne51093100 0.0 1024333
20:00−8nne4995100 0.1 1025242